User: anonymous   Login
Location: Livonia
(42.3680°N, 83.3530°W)
Time: 09:13:43
(UTC-04:00)
Language:

MOZ.5/SAFIR/RUBIN 5/SL-8 - Orbit

View from above orbital plane
View from above orbital plane
View from above satellite
View from above satellite

Ground track
Ground track

The orbit data is extracted from the following two-line orbital elements,

1 28898U 05043G   15107.58635164  .00000742  00000-0  16380-3 0  9993
2 28898 097.8432 285.4526 0020574 154.6434 205.5781 14.59853161504322
Epoch (UTC): 17 April 2015 14:04:20
Eccentricity: 0.0020574
inclination: 97.8432°
perigee height: 679 km
apogee height: 708 km
right ascension of ascending node: 285.4526°
argument of perigee: 154.6434°
revolutions per day: 14.59853161
mean anomaly at epoch: 205.5781°
orbit number at epoch: 50432

The dashed part of the orbit path shows where the satellite is in the earth's shadow,  

DLR